TimeCST,TemperatureF,Dew PointF,Humidity,Sea Level PressureIn,VisibilityMPH,Wind Direction,Wind SpeedMPH,Gust SpeedMPH,PrecipitationIn,Events,Conditions,WindDirDegrees,DateUTC
12:52 AM,53.1,51.1,93,29.53,7.0,SSE,4.6,-,0.11,Rain,Light Rain,160,2013-01-30 06:52:00
1:52 AM,53.1,51.1,93,29.52,10.0,SE,8.1,-,0.08,Rain,Light Rain,140,2013-01-30 07:52:00
2:52 AM,53.1,50.0,89,29.48,10.0,South,9.2,-,0.03,Rain,Light Rain,180,2013-01-30 08:52:00
3:12 AM,53.6,50.0,88,29.48,10.0,South,8.1,-,0.00,Rain,Light Rain,170,2013-01-30 09:12:00
3:52 AM,53.1,50.0,89,29.43,10.0,SE,9.2,-,0.00,Rain,Light Rain,140,2013-01-30 09:52:00
4:00 AM,51.8,50.0,94,29.43,10.0,SE,9.2,-,N/A,,Overcast,140,2013-01-30 10:00:00
4:22 AM,51.8,50.0,94,29.43,10.0,South,5.8,-,N/A,,Overcast,170,2013-01-30 10:22:00
4:52 AM,52.0,50.0,93,29.44,10.0,SSW,5.8,-,N/A,,Overcast,210,2013-01-30 10:52:00
5:52 AM,52.0,50.0,93,29.44,10.0,South,12.7,-,N/A,,Overcast,190,2013-01-30 11:52:00
6:52 AM,53.1,50.0,89,29.44,10.0,South,11.5,-,N/A,,Overcast,190,2013-01-30 12:52:00
7:09 AM,53.6,50.0,88,29.46,10.0,SSW,13.8,-,N/A,,Overcast,200,2013-01-30 13:09:00
7:52 AM,53.1,50.0,89,29.44,10.0,SSW,12.7,-,N/A,,Overcast,200,2013-01-30 13:52:00
8:34 AM,53.6,50.0,88,29.44,10.0,South,13.8,-,N/A,,Overcast,190,2013-01-30 14:34:00
8:49 AM,53.6,50.0,88,29.44,10.0,SSW,16.1,23.0,0.00,Rain,Light Rain,200,2013-01-30 14:49:00
8:52 AM,54.0,50.0,86,29.43,10.0,SSW,13.8,23.0,0.00,Rain,Light Rain,200,2013-01-30 14:52:00
9:01 AM,55.4,50.0,82,29.44,10.0,SSW,16.1,23.0,0.00,,Overcast,200,2013-01-30 15:01:00
9:18 AM,55.4,48.2,77,29.44,10.0,SSW,16.1,-,0.00,,Overcast,200,2013-01-30 15:18:00
10:52 AM,48.9,44.1,83,29.43,7.0,WNW,17.3,28.8,0.08,Rain,Light Rain,290,2013-01-30 16:52:00
11:52 AM,46.9,39.0,74,29.47,10.0,West,17.3,29.9,0.00,,Overcast,270,2013-01-30 17:52:00
12:26 PM,46.4,37.4,71,29.47,10.0,West,18.4,24.2,N/A,,Overcast,270,2013-01-30 18:26:00
12:52 PM,48.0,36.0,63,29.45,10.0,West,19.6,27.6,N/A,,Mostly Cloudy,280,2013-01-30 18:52:00
1:24 PM,44.6,33.8,66,29.49,10.0,WNW,12.7,31.1,N/A,,Overcast,290,2013-01-30 19:24:00
1:52 PM,45.0,33.1,63,29.50,10.0,West,12.7,20.7,N/A,,Overcast,280,2013-01-30 19:52:00
2:09 PM,44.6,33.8,66,29.52,10.0,WNW,18.4,24.2,N/A,,Overcast,300,2013-01-30 20:09:00
2:52 PM,42.1,28.0,58,29.56,10.0,WNW,24.2,35.7,N/A,,Overcast,300,2013-01-30 20:52:00
3:31 PM,37.4,26.6,65,29.59,10.0,West,17.3,32.2,N/A,,Overcast,280,2013-01-30 21:31:00
4:42 PM,35.6,24.8,65,29.68,10.0,WNW,19.6,29.9,N/A,,Overcast,290,2013-01-30 22:42:00
4:52 PM,35.1,23.0,61,29.68,10.0,West,13.8,29.9,N/A,,Overcast,280,2013-01-30 22:52:00
5:52 PM,34.0,23.0,64,29.72,10.0,WNW,12.7,28.8,N/A,,Overcast,290,2013-01-30 23:52:00
6:25 PM,33.8,23.0,65,29.75,10.0,WNW,15.0,25.3,N/A,,Overcast,290,2013-01-31 00:25:00
6:52 PM,34.0,23.0,64,29.77,10.0,West,17.3,33.4,N/A,,Overcast,280,2013-01-31 00:52:00
7:01 PM,33.8,23.0,65,29.77,10.0,West,15.0,24.2,N/A,,Overcast,280,2013-01-31 01:01:00
7:50 PM,33.8,21.2,60,29.80,10.0,West,13.8,26.5,N/A,,Overcast,280,2013-01-31 01:50:00
7:52 PM,34.0,21.9,61,29.81,10.0,WNW,16.1,26.5,N/A,,Overcast,290,2013-01-31 01:52:00
8:52 PM,33.1,19.9,59,29.84,10.0,WNW,15.0,29.9,N/A,,Overcast,290,2013-01-31 02:52:00
9:52 PM,32.0,19.0,59,29.88,10.0,WNW,9.2,-,N/A,,Overcast,290,2013-01-31 03:52:00
10:52 PM,32.0,19.0,59,29.92,10.0,West,13.8,24.2,N/A,,Overcast,280,2013-01-31 04:52:00
11:52 PM,30.9,16.0,54,29.94,10.0,West,16.1,33.4,N/A,,Overcast,270,2013-01-31 05:52:00